Skip Page Navigation
NASA JPL Caltech
NASA Logo - Jet Propulsion Laboratory + View the NASA Portal
+ Center for Near-Earth Object Studies
JPL Home Earth Solar System Stars & Galaxies Technology
JPL Solar System Dynamics
BODIES ORBITS EPHEMERIDES TOOLS PHYSICAL DATA DISCOVERY FAQ SITE MAP
IMPORTANT: The SSD Announcement email list is now available. Major changes are coming in the near future, including possible hostname and/or URL changes. To be notified of such changes, subscribe to this email list.

Please visit this page for more details.


JPL Small-Body Database Browser
Search: [ help ]  
410635 (2008 RP46)
Classification: Main-belt Asteroid          SPK-ID: 2410635
Ephemeris | Orbit Diagram | Orbital Elements | Mission Design | Physical Parameters | Discovery Circumstances | Close-Approach Data ]

[ show orbit diagram ]
Orbital Elements at Epoch 2458600.5 (2019-Apr-27.0) TDB
Reference: JPL 19 (heliocentric ecliptic J2000)
 Element Value Uncertainty (1-sigma)   Units 
e .2000180364914034 6.0736e-08  
a 3.133344518461937 3.632e-08 au
q 2.506619100228078 2.0585e-07 au
i 17.54102894778102 7.0218e-06 deg
node 186.8757683183012 1.7754e-05 deg
peri 213.3495766406019 3.1518e-05 deg
M 304.6913770827535 2.0052e-05 deg
tp 2458911.744005213590
(2020-Mar-03.24400521)
0.00011418 TDB
period 2025.865696286455
5.55
3.5224e-05
9.644e-08
d
yr
n .1777018094831773 3.0897e-09 deg/d
Q 3.760069936695796 4.3584e-08 au
  Orbit Determination Parameters
   # obs. used (total)      245  
   data-arc span      4101 days (11.23 yr)  
   first obs. used      2008-09-02  
   last obs. used      2019-11-25  
   planetary ephem.      DE431  
   SB-pert. ephem.      SB431-N16  
   condition code      0  
   norm. resid. RMS      .57016  
   source      ORB  
   producer      Otto Matic  
   solution date      2019-Dec-14 21:59:16  

Additional Information
 Earth MOID = 1.52954 au 
 Jupiter MOID = 1.75651 au 
 T_jup = 3.111 
[ show covariance matrix ]

Ephemeris | Orbit Diagram | Orbital Elements | Mission Design | Physical Parameters | Discovery Circumstances | Close-Approach Data ]

Physical Parameter Table
Parameter Symbol Value Units Sigma Reference Notes
absolute magnitude H 15.9   n/a MPO455919  

410635 (2008 RP46)          Discovered 2008-Sep-02 by Spacewatch at Kitt Peak
Reference: Last Updated: 2014-10-09

[ show close-approach data ]
Ephemeris | Orbit Diagram | Orbital Elements | Mission Design | Physical Parameters | Discovery Circumstances | Close-Approach Data ]
ABOUT SSD CREDITS/AWARDS PRIVACY/COPYRIGHT GLOSSARY LINKS
FirstGov 2020-Jan-19 13:49 UT
(server date/time)  
NASA Home Page
Site Manager:   Ryan S. Park
Webmaster  Alan B. Chamberlin